Weather History for Pinedale, WY

Change the Weather History Date:

Tuesday, January 8, 2013

  Actual Average (KBPI) Record (KBPI)
Temperature  
Mean Temperature 21 °F 11 °F  
Max Temperature 30 °F 26 °F 42 °F (2009)
Min Temperature 12 °F -4 °F -25 °F (1987)
Degree Days  
Heating Degree Days 44 54  
Month to date heating degree days 432  
Since 1 July heating degree days 4871  
Cooling Degree Days 0 0  
Month to date cooling degree days 0  
Year to date cooling degree days 0  
Moisture  
Dew Point 18 °F    
Average Humidity 85    
Maximum Humidity 100    
Minimum Humidity 69    
Precipitation  
Precipitation 0.00 in 0.01 in 0.18 in (1985)
Month to date precipitation 0.08  
Year to date precipitation 0.08  
Sea Level Pressure  
Sea Level Pressure 30.10 in    
Wind  
Wind Speed 7 mph (WNW)    
Max Wind Speed 15 mph    
Max Gust Speed -    
Visibility 10 miles    
Events Snow    
T = Trace of Precipitation, MM = Missing Value Source: NWS Daily Summary

Daily Weather History Graph

Daily Weather History Graph

Search for Another Location

Airport:

Trip Planner

Search our weather history database for the weather conditions in past years. The results will help you decide how hot, cold, wet, or windy it might be!

Date:

Astronomy

Jan. 08, 2013 Rise Set
Actual Time 7:49 AM MST 5:03 PM MST
Civil Twilight 7:17 AM MST 5:34 PM MST
Nautical Twilight 6:42 AM MST 6:10 PM MST
Astronomical Twilight 6:08 AM MST 6:44 PM MST
Moon 4:25 AM MST (1/8) 2:08 PM MST (1/8)
Length of Visible Light 10h 17m
Length of Day
9h 13m
Waning Crescent, 13% of the Moon is Illuminated
Jan 8
Waning Crescent
Jan 11
New
Jan 18
First Quarter
Jan 26
Full
Feb 3
Last Quarter

Hourly Weather History & Observations

Time (MST) Temp. Windchill Dew Point Humidity Pressure Visibility Wind Dir Wind Speed Gust Speed Precip Events Conditions
12:15 AM 19.4 °F - 15.8 °F 86% 29.95 in 10.0 mi Calm Calm - N/A   Clear
12:35 AM 17.6 °F 3.2 °F 14.0 °F 86% 29.95 in 10.0 mi WNW 15.0 mph - N/A   Scattered Clouds
12:55 AM 17.6 °F 3.7 °F 14.0 °F 86% 29.95 in 10.0 mi NW 13.8 mph - N/A   Scattered Clouds
1:15 AM 17.6 °F 3.2 °F 14.0 °F 86% 29.95 in 10.0 mi NW 15.0 mph - N/A   Clear
1:35 AM 17.6 °F 5.0 °F 14.0 °F 86% 29.96 in 10.0 mi West 11.5 mph - N/A   Clear
1:55 AM 17.6 °F 7.3 °F 14.0 °F 86% 29.96 in 10.0 mi WNW 8.1 mph - N/A   Clear
2:15 AM 19.4 °F 7.2 °F 14.0 °F 80% 29.96 in 10.0 mi NW 11.5 mph - N/A   Clear
2:35 AM 17.6 °F - 14.0 °F 86% 29.97 in 10.0 mi Calm Calm - N/A   Scattered Clouds
2:55 AM 19.4 °F - 15.8 °F 86% 29.98 in 10.0 mi Calm Calm - N/A   Mostly Cloudy
3:15 AM 19.4 °F 10.4 °F 15.8 °F 86% 29.98 in 10.0 mi NNW 6.9 mph - N/A   Scattered Clouds
3:35 AM 19.4 °F 12.8 °F 15.8 °F 86% 29.99 in 10.0 mi West 4.6 mph - N/A   Mostly Cloudy
3:55 AM 17.6 °F 12.3 °F 15.8 °F 93% 29.99 in 10.0 mi West 3.5 mph - N/A   Overcast
4:15 AM 19.4 °F 10.4 °F 17.6 °F 93% 29.99 in 10.0 mi NW 6.9 mph - N/A   Overcast
4:35 AM 19.4 °F 9.5 °F 17.6 °F 93% 29.99 in 10.0 mi WNW 8.1 mph - N/A   Overcast
5:15 AM 19.4 °F 9.5 °F 17.6 °F 93% 30.00 in 10.0 mi NNW 8.1 mph - N/A   Overcast
5:35 AM 21.2 °F 11.7 °F 17.6 °F 86% 30.00 in 10.0 mi NNW 8.1 mph - N/A   Overcast
5:55 AM 17.6 °F 8.2 °F 15.8 °F 93% 30.01 in 10.0 mi WNW 6.9 mph - N/A   Overcast
6:15 AM 19.4 °F 9.5 °F 17.6 °F 93% 30.01 in 10.0 mi NW 8.1 mph - N/A   Overcast
6:35 AM 19.4 °F 9.5 °F 17.6 °F 93% 30.01 in 10.0 mi NW 8.1 mph - N/A   Overcast
6:55 AM 19.4 °F 9.5 °F 17.6 °F 93% 30.01 in 10.0 mi NW 8.1 mph - N/A Snow Light Snow
7:15 AM 21.2 °F 12.6 °F 19.4 °F 93% 30.03 in 10.0 mi NW 6.9 mph - N/A   Overcast
7:35 AM 21.2 °F 13.6 °F 19.4 °F 93% 30.03 in 10.0 mi WNW 5.8 mph - N/A   Overcast
7:55 AM 21.2 °F 14.9 °F 19.4 °F 93% 30.04 in 10.0 mi NW 4.6 mph - N/A   Overcast
8:15 AM 21.2 °F 12.6 °F 19.4 °F 93% 30.05 in 10.0 mi NW 6.9 mph - N/A   Overcast
8:35 AM 19.4 °F 8.6 °F 17.6 °F 93% 30.05 in 10.0 mi NW 9.2 mph - N/A   Scattered Clouds
8:55 AM 21.2 °F 10.1 °F 17.6 °F 86% 30.05 in 10.0 mi WNW 10.4 mph - N/A   Clear
9:15 AM 19.4 °F 7.2 °F 17.6 °F 93% 30.06 in 10.0 mi WNW 11.5 mph - N/A   Clear
9:35 AM 21.2 °F 9.5 °F 17.6 °F 86% 30.06 in 10.0 mi NW 11.5 mph - N/A   Clear
9:55 AM 23.0 °F 11.7 °F 19.4 °F 86% 30.06 in 10.0 mi NW 11.5 mph - N/A   Clear
10:15 AM 24.8 °F 15.3 °F 19.4 °F 80% 30.07 in 10.0 mi WNW 9.2 mph - N/A   Clear
10:35 AM 26.6 °F 19.1 °F 19.4 °F 74% 30.08 in 10.0 mi NNW 6.9 mph - N/A   Clear
10:55 AM 26.6 °F 16.8 °F 19.4 °F 74% 30.09 in 10.0 mi NNW 10.4 mph - N/A   Clear
11:15 AM 26.6 °F 19.1 °F 19.4 °F 74% 30.09 in 10.0 mi WNW 6.9 mph - N/A   Clear
11:35 AM 28.4 °F 21.2 °F 19.4 °F 69% 30.09 in 10.0 mi WNW 6.9 mph - N/A   Clear
11:55 AM 30.2 °F 21.9 °F 21.2 °F 69% 30.09 in 10.0 mi WNW 9.2 mph - N/A   Clear
12:15 PM 28.4 °F 18.0 °F 21.2 °F 74% 30.09 in 10.0 mi WNW 12.7 mph - N/A   Clear
12:55 PM 30.2 °F 20.2 °F 21.2 °F 69% 30.08 in 10.0 mi NW 12.7 mph - N/A   Clear
1:15 PM 30.2 °F 21.9 °F 21.2 °F 69% 30.09 in 10.0 mi NW 9.2 mph - N/A   Clear
1:35 PM 30.2 °F 23.4 °F 21.2 °F 69% 30.10 in 10.0 mi WNW 6.9 mph - N/A   Scattered Clouds
1:55 PM 30.2 °F 21.9 °F 21.2 °F 69% 30.11 in 10.0 mi WNW 9.2 mph - N/A   Mostly Cloudy
2:15 PM 30.2 °F 21.3 °F 21.2 °F 69% 30.11 in 10.0 mi WNW 10.4 mph - N/A   Scattered Clouds
2:35 PM 30.2 °F 21.9 °F 21.2 °F 69% 30.11 in 10.0 mi NW 9.2 mph - N/A   Scattered Clouds
2:55 PM 30.2 °F 21.9 °F 21.2 °F 69% 30.12 in 10.0 mi NW 9.2 mph - N/A   Scattered Clouds
3:15 PM 30.2 °F 21.3 °F 21.2 °F 69% 30.14 in 10.0 mi NW 10.4 mph - N/A   Mostly Cloudy
3:35 PM 30.2 °F 21.9 °F 21.2 °F 69% 30.14 in 10.0 mi NW 9.2 mph - N/A   Overcast
3:55 PM 30.2 °F 22.6 °F 21.2 °F 69% 30.14 in 10.0 mi NNW 8.1 mph - N/A   Overcast
4:15 PM 26.6 °F 20.0 °F 21.2 °F 80% 30.15 in 10.0 mi NW 5.8 mph - N/A   Mostly Cloudy
4:35 PM 26.6 °F 17.5 °F 19.4 °F 74% 30.16 in 10.0 mi NW 9.2 mph - N/A   Scattered Clouds
4:55 PM 24.8 °F - 19.4 °F 80% 30.16 in 10.0 mi Calm Calm - N/A   Mostly Cloudy
5:15 PM 24.8 °F - 19.4 °F 80% 30.17 in 10.0 mi Calm Calm - N/A   Overcast
5:35 PM 24.8 °F 20.5 °F 19.4 °F 80% 30.19 in 10.0 mi WSW 3.5 mph - N/A   Overcast
5:55 PM 23.0 °F 15.8 °F 19.4 °F 86% 30.18 in 10.0 mi WSW 5.8 mph - N/A   Overcast
6:15 PM 21.2 °F - 17.6 °F 86% 30.18 in 10.0 mi Calm Calm - N/A   Mostly Cloudy
6:35 PM 21.2 °F 16.4 °F 17.6 °F 86% 30.20 in 10.0 mi SW 3.5 mph - N/A   Scattered Clouds
6:55 PM 21.2 °F 14.9 °F 17.6 °F 86% 30.21 in 10.0 mi West 4.6 mph - N/A   Scattered Clouds
7:15 PM 17.6 °F - 15.8 °F 93% 30.22 in 10.0 mi Calm Calm - N/A   Mostly Cloudy
7:35 PM 14.0 °F - 12.2 °F 93% 30.22 in 10.0 mi Calm Calm - N/A   Scattered Clouds
7:55 PM 14.0 °F - 12.2 °F 93% 30.23 in 10.0 mi Calm Calm - N/A   Scattered Clouds
8:35 PM 12.2 °F - 12.2 °F 100% 30.26 in 10.0 mi Calm Calm - N/A   Mostly Cloudy
8:55 PM 14.0 °F - 14.0 °F 100% 30.26 in 10.0 mi Calm Calm - N/A   Overcast
9:15 PM 17.6 °F - 15.8 °F 93% 30.27 in 10.0 mi Calm Calm - N/A   Overcast
9:35 PM 17.6 °F - 15.8 °F 93% 30.27 in 10.0 mi Calm Calm - N/A   Overcast
9:55 PM 17.6 °F - 15.8 °F 93% 30.29 in 10.0 mi Calm Calm - N/A   Overcast
10:55 PM 17.6 °F 12.3 °F 17.6 °F 100% 30.30 in 10.0 mi West 3.5 mph - N/A   Overcast
11:15 PM 19.4 °F - 17.6 °F 93% 30.31 in 10.0 mi Calm Calm - N/A   Overcast
11:35 PM 17.6 °F 12.3 °F 15.8 °F 93% 30.32 in 10.0 mi West 3.5 mph - N/A   Overcast
11:55 PM 15.8 °F 8.6 °F 14.0 °F 93% 30.33 in 10.0 mi West 4.6 mph - N/A   Overcast